Total_Precipitation_Accumulation
0.22 0.21 0.32 0.45 0.69 0.67 0.73 0.80 0.45 0.48 0.41 0.28 0.14 0.09 0.15 0.10 0.05 0.06 0.04 0.03 0.05 0.08
0.20 0.16 0.16 0.41 0.59 0.51 0.66 0.83 0.95 0.47 0.37 0.26 0.20 0.10 0.13 0.09 0.11 0.19 0.20 0.01 0.02 0.02
0.16 0.16 0.22 0.28 0.44 0.57 0.73 1.88 1.69 0.80 0.43 0.37 0.27 0.29 0.23 0.10 0.06 0.08 0.09 0.02 0.04 0.04
0.33 0.16 0.17 0.23 0.36 0.53 0.64 0.76 0.83 1.30 0.53 0.64 0.53 0.34 0.42 0.37 0.25 0.23 0.15 0.07 0.08 0.07
0.94 0.77 0.46 0.32 0.31 0.43 0.54 0.58 0.70 0.64 0.78 0.81 0.56 0.63 0.54 0.54 0.47 0.47 0.31 0.20 0.21 0.16
1.10 1.01 0.96 0.77 0.80 0.52 0.42 0.52 0.46 0.66 0.97 0.86 0.73 0.82 0.97 1.02 0.81 0.63 0.52 0.34 0.29 0.18
1.18 0.93 0.85 0.74 0.75 0.59 0.54 0.56 0.35 0.41 0.56 0.55 0.47 0.58 0.80 1.12 1.27 0.84 0.65 0.86 0.60 0.53
2.15 1.43 1.29 1.10 1.18 0.95 0.67 0.59 0.47 0.45 0.55 0.67 0.79 0.81 0.84 0.77 0.78 0.68 0.77 0.79 0.90 1.05
2.08 1.94 1.48 1.34 1.14 0.99 0.87 0.82 0.74 0.64 0.67 0.84 0.80 0.72 0.58 0.39 0.45 0.70 0.74 0.69 0.79 0.87
1.36 0.99 0.90 0.87 1.03 1.07 1.08 1.03 1.00 0.98 1.06 0.90 0.63 0.60 0.56 0.52 0.26 0.47 0.71 0.88 0.99 0.89
1.21 1.24 1.10 0.86 0.78 0.80 0.82 0.96 1.07 0.82 0.73 0.85 0.95 1.12 0.77 0.69 0.34 0.27 0.53 0.72 0.68 0.70
1.19 0.97 1.05 1.03 1.13 1.15 1.00 0.94 1.01 1.10 0.98 0.77 0.71 0.83 0.62 0.55 0.46 0.42 0.52 0.65 0.41 0.39
2.83 1.71 1.29 1.61 1.77 1.76 1.84 1.46 1.04 0.86 0.64 0.48 0.37 0.48 0.43 0.43 0.43 0.38 0.42 0.36 0.24 0.49
2.09 2.30 1.93 2.24 2.27 2.19 2.07 1.86 1.53 1.36 1.13 0.94 0.68 0.62 0.56 0.42 0.29 0.31 0.59 0.44 0.26 0.16